Terminal Aerodrome Forecast
Issued by NWS

Home | Current Version | Previous Version | Text Only | Print | Product List | Glossary On
Versions: 1 2 3 4 5 6 7 8 9 10 11 12 13 14 15 16 17 18 19 20 21 22 23 24 25 26 27 28 29 30 31 32 33 34 35 36 37 38 39 40 41 42 43 44 45 46
240
FTPA31 PHFO 111734
TAFMDY
TAF
PMDY 111734Z 1118/1218 21012G20KT P6SM SCT015 BKN035 OVC060
     FM112000 23020G30KT 5SM RA BR BKN008 OVC025
     FM120300 27015KT P6SM VCSH SCT018 BKN035 OVC060
      AMD NOT SKED=

USA.gov is the U.S. government's official web portal to all federal, state and local government web resources and services.